Weather History for Tampa, FL

Change the Weather History Date:

Thursday, November 14, 2013

  Actual Average Record
Temperature  
Mean Temperature 64 °F 69 °F  
Max Temperature 77 °F 78 °F 88 °F (1993)
Min Temperature 51 °F 61 °F 37 °F (1968)
Degree Days  
Heating Degree Days 1 1  
Month to date heating degree days 5 12  
Since 1 July heating degree days 5 16  
Cooling Degree Days 0 6  
Month to date cooling degree days 103 93  
Year to date cooling degree days 3644 3459  
Growing Degree Days 14 (Base 50)    
Moisture  
Dew Point 50 °F    
Average Humidity 61    
Maximum Humidity 83    
Minimum Humidity 38    
Precipitation  
Precipitation 0.00 in 0.06 in 3.49 in (1954)
Month to date precipitation 0.59 0.73  
Year to date precipitation 51.30 43.01  
Sea Level Pressure  
Sea Level Pressure 30.25 in    
Wind  
Wind Speed 8 mph (ENE)    
Max Wind Speed 15 mph    
Max Gust Speed 23 mph    
Visibility 10 miles    
Events      
T = Trace of Precipitation, MM = Missing Value Source: NWS Daily Summary

Daily Weather History Graph

Daily Weather History Graph

Search for Another Location

Airport:

Trip Planner

Search our weather history database for the weather conditions in past years. The results will help you decide how hot, cold, wet, or windy it might be!

Date:

Astronomy

Nov. 14, 2013 Rise Set
Actual Time 6:51 AM EST 5:37 PM EST
Civil Twilight 6:26 AM EST 6:02 PM EST
Nautical Twilight 5:58 AM EST 6:30 PM EST
Astronomical Twilight 5:30 AM EST 6:58 PM EST
Moon 3:46 PM EST (11/14) 3:58 AM EST (11/14)
Length of Visible Light 11h 36m
Length of Day
10h 46m
Waxing Gibbous, 91% of the Moon is Illuminated
Nov 14
Waxing Gibbous
Nov 17
Full
Nov 25
Last Quarter
Dec 2
New
Dec 9
First Quarter

Hourly Weather History & Observations

Time (EST) Temp. Dew Point Humidity Pressure Visibility Wind Dir Wind Speed Gust Speed Precip Events Conditions
12:53 AM 52.0 °F 45.0 °F 77% 30.29 in 10.0 mi NNE 11.5 mph - N/A   Partly Cloudy
1:53 AM 52.0 °F 45.0 °F 77% 30.27 in 10.0 mi NNE 10.4 mph - N/A   Partly Cloudy
2:53 AM 52.0 °F 45.0 °F 77% 30.26 in 10.0 mi NNE 9.2 mph - N/A   Partly Cloudy
3:53 AM 51.1 °F 45.0 °F 80% 30.27 in 10.0 mi NNE 10.4 mph - N/A   Partly Cloudy
4:53 AM 51.1 °F 45.0 °F 80% 30.27 in 10.0 mi NE 8.1 mph - N/A   Clear
5:53 AM 51.1 °F 46.0 °F 83% 30.27 in 10.0 mi NE 8.1 mph - N/A   Partly Cloudy
6:53 AM 51.1 °F 46.0 °F 83% 30.29 in 10.0 mi NNE 6.9 mph - N/A   Scattered Clouds
7:53 AM 53.1 °F 46.9 °F 80% 30.30 in 10.0 mi NE 6.9 mph - N/A   Scattered Clouds
8:53 AM 59.0 °F 48.0 °F 67% 30.31 in 10.0 mi NE 8.1 mph - N/A   Scattered Clouds
9:53 AM 64.9 °F 50.0 °F 58% 30.31 in 10.0 mi ENE 8.1 mph - N/A   Partly Cloudy
10:53 AM 70.0 °F 50.0 °F 49% 30.30 in 10.0 mi ENE 11.5 mph 17.3 mph N/A   Scattered Clouds
11:53 AM 73.0 °F 52.0 °F 48% 30.27 in 10.0 mi East 8.1 mph 18.4 mph N/A   Scattered Clouds
12:53 PM 75.0 °F 51.1 °F 43% 30.23 in 10.0 mi ESE 11.5 mph 18.4 mph N/A   Scattered Clouds
1:53 PM 75.9 °F 50.0 °F 40% 30.21 in 10.0 mi East 10.4 mph 18.4 mph N/A   Scattered Clouds
2:53 PM 75.0 °F 53.1 °F 46% 30.20 in 10.0 mi East 9.2 mph 20.7 mph N/A   Mostly Cloudy
3:53 PM 75.0 °F 50.0 °F 41% 30.20 in 10.0 mi East 10.4 mph 19.6 mph N/A   Mostly Cloudy
4:53 PM 75.0 °F 48.9 °F 40% 30.19 in 10.0 mi ENE 10.4 mph 16.1 mph N/A   Overcast
5:53 PM 72.0 °F 53.1 °F 51% 30.20 in 10.0 mi East 5.8 mph - N/A   Overcast
6:53 PM 70.0 °F 54.0 °F 57% 30.21 in 10.0 mi ENE 5.8 mph - N/A   Mostly Cloudy
7:53 PM 69.1 °F 54.0 °F 58% 30.21 in 10.0 mi ENE 6.9 mph - N/A   Mostly Cloudy
8:53 PM 66.9 °F 55.0 °F 66% 30.22 in 10.0 mi Variable 4.6 mph - N/A   Mostly Cloudy
9:53 PM 66.0 °F 55.0 °F 68% 30.23 in 10.0 mi NE 3.5 mph - 0.00 in   Mostly Cloudy
10:53 PM 64.9 °F 55.0 °F 70% 30.21 in 10.0 mi NE 3.5 mph - 0.00 in   Overcast
11:53 PM 64.0 °F 55.0 °F 73% 30.20 in 10.0 mi ENE 3.5 mph - 0.00 in   Overcast